Other Public Products
Issued by NWS Charleston, SC

Current Version | Previous Version | Graphics & Text | Print | Product List | Glossary On
Versions: 1 2 3 4 5 6 7 8 9 10 11 12 13 14 15 16 17 18 19 20 21 22 23 24 25 26 27 28 29 30 31 32 33 34 35 36 37 38 39 40 41 42 43 44 45 46 47 48 49 50
331
FPUS82 KCHS 242327
OPUCHS

TEST...KCHS/KSAV Gateway Observations...TEST
National Weather Service Charleston SC
600 PM EST SAT FEB 24 2018

NOTE: "fair" indicates few or no clouds below 12,000 feet with no
significant weather and/or obstructions to visibility.

SCZ050-WAZ558-NCZ071-TXZ119-213-PAZ071-DCZ001-FLZ074-172-MI076-
NYZ176-178-MAZ016-IL014-TNZ027-NJZ106-GAZ044-MD014-250000-

...Gateway Observations for Charleston International...

CITY           SKY/WX    TMP DP  RH WIND       PRES   REMARKS
Chas Airport   FAIR      72  63  73 S15       30.13S
Seattle        PTSUNNY   44  32  62 SE9       30.13S
Charlotte      MOCLDY    75  59  57 S12       30.06S
Dallas DFW     PTSUNNY   64  46  52 NW14      29.87R
Dallas Love    PTSUNNY   63  48  58 NW7       29.88R
Philladelphia  CLOUDY    49  44  83 N5        30.18R
Wash National  LGT RAIN  51  48  89 NE10      30.14R
Baltimore      CLOUDY    49  46  90 NE8       30.13S
Miami          FAIR      76  67  73 E14       30.15R
Detroit        CLOUDY    40  32  73 E10       30.06F WCI  33
Newark         CLOUDY    47  40  76 N9        30.17F
Laguardia      LGT RAIN  47  42  83 NE5       30.17F
J F K          CLOUDY    47  44  90 N9        30.18S
Boston Logan   CLOUDY    51  33  50 N7        30.17R
Ft. Lauderdale FAIR      77  68  73 SE14      30.15R
Chicago O`Hare DRIZZLE   40  37  89 E16       29.82F FOG     WCI  31
Chicago Midway DRIZZLE   41  40  96 E10       29.82F FOG
Houston Bush   CLOUDY    78  67  68 S13       29.86S
Houston Hobby  PTSUNNY   77  70  79 S12       29.87S
Nashville      CLOUDY    75  60  59 S20       29.88R
Atlanta        MOCLDY    77  58  51 S9        30.04F

$$

GAZ044-118-TXZ119-213-NCZ071-DCZ001-MDZ014-506-PAZ021-071-NJZ106-
NYZ176-178-MAZ106-OHZ011-021-055-MIZ076-KYZ091-ILZ014-INZ047-
MNZ060-ONZ431-250000-

...Gateway Observations for Savannah International...

CITY           SKY/WX    TMP DP  RH WIND       PRES   REMARKS
Savannah Arpt  FAIR      74  60  61 S10G20    30.12S
Atlanta        MOCLDY    77  58  51 S9        30.04F
Charlotte      MOCLDY    75  59  57 S12       30.06S
Dallas DFW     PTSUNNY   64  46  52 NW14      29.87R
Houston Bush   CLOUDY    78  67  68 S13       29.86S
Wash National  LGT RAIN  51  48  89 NE10      30.14R
Wash Dulles    CLOUDY    49  48  97 NE10      30.12R
Baltimore      CLOUDY    49  46  90 NE8       30.13S
Philadelphia   CLOUDY    49  44  83 N5        30.18R
Newark         CLOUDY    47  40  76 N9        30.17F
Laguardia      LGT RAIN  47  42  83 NE5       30.17F
J F K          CLOUDY    47  44  90 N9        30.18S
Boston         CLOUDY    51  33  50 N7        30.17R
Pittsburg      CLOUDY    48  45  89 E6        30.04R
Akron          CLOUDY    48  42  80 SE10      30.03F
Cleveland      CLOUDY    40  35  83 NE9       30.09R WCI  34
Cincinnati     RAIN      52  51  97 E8        29.91R FOG
Columbus       LGT RAIN  49  49  99 E5        29.99F
Detroit        CLOUDY    40  32  73 E10       30.06F WCI  33
Chicago O`Hare DRIZZLE   40  37  89 E16       29.82F FOG     WCI  31
Minneapolis    SNOW      28  27  96 NE9       29.67F VSB 1/2 WCI  19
Indianapolis   LGT RAIN  50  49  96 E12       29.85F FOG
Toronto Canada MOCLDY    36  25  64 SE5       30.16R WCI  32

$$




USA.gov is the U.S. government's official web portal to all federal, state and local government web resources and services.